Weather in Cagnes-sur-Mer

France     43°39′34″N   7°08′41″E
temp.,
°C
wind,
m/s
gust,
m/s
humid.,
%
clouds,
%
prec.,
mm/h
press.,
hPa
HPBL,
m
29 july, thu
thu2923:00+22ne22660 0.0 101498
02:00+21n22640 0.0 101494
05:00+20nnw33571 0.0 101471
08:00+22nnw22485 0.0 1014110
11:00+26se32480 0.0 1014811
14:00+27se33540 0.0 1014858
17:00+26sse22602 0.0 1013605
20:00+24sse22720 0.0 1013405
30 july, fri
fri3023:00+23nnw12770 0.0 101380
02:00+22n11720 0.0 101338
05:00+21nnw22670 0.0 101255
08:00+23nnw115897 0.1 1012119
11:00+26sse32594 0.0 1013667
14:00+27sse42648 0.0 1012661
17:00+27s34610 0.0 1011605
20:00+24s22650 0.0 1011409
31 july, sat
sat3123:00+22nne11730 0.0 1010102
02:00+22nnw22690 0.0 101049
05:00+21nnw22650 0.0 100948
08:00+23nne11570 0.0 1009153
11:00+26ese32621 0.0 1010724
14:00+27se32580 0.0 1009729
17:00+26se32620 0.0 1008693
20:00+24sse22720 0.0 1007489
1 august, sun
sun123:00+22nnw1180100 0.0 1007168
02:00+21nne118723 0.1 1007143
05:00+19n33875 2.1 100691
08:00+20nnw127786 3.9 100699
11:00+25s22591 0.0 1005751
14:00+30s56321 0.0 10041932
17:00+32w56200 0.0 10022274
20:00+27w35326 0.0 1003531
2 august, mon
mon223:00+22ne23542 0.0 1007128
02:00+20nnw34532 0.0 100997
05:00+19nnw44520 0.0 101096
08:00+21nnw33461 0.0 1011132
11:00+25sse32445 0.0 10121303
14:00+26se33475 0.0 1013939
17:00+27ese334323 0.0 1013913
20:00+25se2250100 0.0 1013251